| time (UTC) | temp F | wind direction | speed MPH | gust MPH | rain 1hr in | rain 24hr in | rain mn in | humidity % | barometer mb |
| 20260503212858 | 67 | 225 | 19.0 | 28.0 | 0.00 | 0.00 | 0.00 | 36 | 995.5 |
| 20260503210902 | 65 | 245 | 19.0 | 24.0 | 0.00 | 0.00 | 0.00 | 38 | 996.2 |
| 20260503204914 | 65 | 244 | 15.0 | 22.0 | 0.00 | 0.00 | 0.00 | 38 | 996.8 |
| 20260503202913 | 64 | 234 | 16.0 | 27.0 | 0.00 | 0.00 | 0.00 | 39 | 997.2 |
| 20260503200914 | 65 | 235 | 22.0 | 30.0 | 0.00 | 0.00 | 0.00 | 36 | 997.4 |
| 20260503195358 | 66 | 238 | 22.0 | 29.0 | 0.00 | 0.00 | 0.00 | 36 | 997.7 |
| 20260503193401 | 66 | 242 | 20.0 | 28.0 | 0.00 | 0.00 | 0.00 | 36 | 998.0 |
| 20260503191408 | 66 | 240 | 19.0 | 33.0 | 0.00 | 0.00 | 0.00 | 36 | 998.2 |
| 20260503185859 | 67 | 264 | 22.0 | 29.0 | 0.00 | 0.00 | 0.00 | 35 | 998.3 |
| 20260503183914 | 67 | 244 | 22.0 | 28.0 | 0.00 | 0.00 | 0.00 | 36 | 998.5 |
| 20260503181913 | 66 | 227 | 22.0 | 30.0 | 0.00 | 0.00 | 0.00 | 39 | 998.5 |
| 20260503180357 | 67 | 236 | 22.0 | 34.0 | 0.00 | 0.00 | 0.00 | 38 | 998.8 |
| 20260503174433 | 67 | 227 | 24.0 | 31.0 | 0.00 | 0.00 | 0.00 | 40 | 999.0 |
| 20260503172930 | 66 | 225 | 22.0 | 32.0 | 0.00 | 0.00 | 0.00 | 44 | 999.1 |
| 20260503171357 | 66 | 221 | 25.0 | 38.0 | 0.00 | 0.00 | 0.00 | 44 | 999.0 |
| 20260503130908 | 43 | 222 | 8.0 | 10.0 | 0.00 | 0.00 | 0.00 | 77 | 1004.9 |
| 20260503080852 | 34 | 184 | 1.0 | 2.0 | 0.00 | 0.00 | 0.00 | 90 | 1008.3 |
| 20260503071853 | 35 | 184 | 0.0 | 2.0 | 0.00 | 0.00 | 0.00 | 90 | 1008.8 |
| 20260503070203 | 35 | 184 | 1.0 | 3.0 | 0.00 | 0.00 | 0.00 | 89 | 1008.9 |
| 20260503054904 | 38 | 145 | 0.0 | 0.0 | 0.00 | 0.00 | 0.00 | 84 | 1009.4 |
| 20260503052901 | 40 | 145 | 0.0 | 0.0 | 0.00 | 0.00 | 0.00 | 81 | 1009.6 |
| 20260503051401 | 41 | 145 | 0.0 | 0.0 | 0.00 | 0.00 | 0.00 | 76 | 1009.6 |
| 20260503045413 | 41 | 145 | 0.0 | 2.0 | 0.00 | 0.00 | 0.00 | 75 | 1009.6 |
| 20260503043859 | 39 | 144 | 0.0 | 2.0 | 0.00 | 0.00 | 0.00 | 80 | 1009.6 |
| 20260503041857 | 40 | 144 | 0.0 | 2.0 | 0.00 | 0.00 | 0.00 | 76 | 1009.7 |
| 20260503040356 | 41 | 144 | 0.0 | 0.0 | 0.00 | 0.00 | 0.00 | 72 | 1009.7 |
| 20260503034409 | 44 | 144 | 0.0 | 2.0 | 0.00 | 0.00 | 0.00 | 68 | 1009.9 |
| 20260503032406 | 45 | 143 | 0.0 | 3.0 | 0.00 | 0.00 | 0.00 | 67 | 1010.0 |
| 20260503030904 | 45 | 101 | 0.0 | 0.0 | 0.00 | 0.00 | 0.00 | 70 | 1010.0 |
| 20260503024907 | 46 | 101 | 0.0 | 3.0 | 0.00 | 0.00 | 0.00 | 64 | 1010.2 |
| 20260503023359 | 47 | 5 | 1.0 | 2.0 | 0.00 | 0.00 | 0.00 | 61 | 1010.3 |
| 20260503021403 | 50 | 5 | 1.0 | 2.0 | 0.00 | 0.00 | 0.00 | 60 | 1010.4 |
| 20260503015854 | 53 | 5 | 2.0 | 3.0 | 0.00 | 0.00 | 0.00 | 55 | 1010.5 |
| 20260503013912 | 56 | 360 | 2.0 | 5.0 | 0.00 | 0.00 | 0.00 | 48 | 1010.5 |
| 20260503012346 | 57 | 298 | 4.0 | 9.0 | 0.00 | 0.00 | 0.00 | 47 | 1010.7 |
| 20260503010401 | 57 | 278 | 6.0 | 12.0 | 0.00 | 0.00 | 0.00 | 45 | 1010.8 |
| 20260503004406 | 58 | 290 | 7.0 | 12.0 | 0.00 | 0.00 | 0.00 | 45 | 1010.8 |
| 20260503002900 | 58 | 301 | 8.0 | 15.0 | 0.00 | 0.00 | 0.00 | 43 | 1010.9 |
| 20260503001354 | 59 | 265 | 11.0 | 18.0 | 0.00 | 0.00 | 0.00 | 42 | 1011.1 |
| 20260502234851 | 59 | 273 | 10.0 | 19.0 | 0.00 | 0.00 | 0.00 | 42 | 1011.3 |
| 20260502232854 | 59 | 259 | 10.0 | 19.0 | 0.00 | 0.00 | 0.00 | 43 | 1011.2 |
| 20260502230909 | 59 | 255 | 10.0 | 19.0 | 0.00 | 0.00 | 0.00 | 42 | 1011.3 |
| 20260502224900 | 59 | 287 | 13.0 | 21.0 | 0.00 | 0.00 | 0.00 | 42 | 1011.3 |
| 20260502222906 | 59 | 298 | 13.0 | 20.0 | 0.00 | 0.00 | 0.00 | 42 | 1011.5 |
| 20260502221354 | 59 | 284 | 13.0 | 23.0 | 0.00 | 0.00 | 0.00 | 41 | 1011.4 |
| 20260502215850 | 60 | 288 | 13.0 | 22.0 | 0.00 | 0.00 | 0.00 | 40 | 1011.5 |